{"data":{"norad_id":60923,"intl_designator":"2024-154W","name":"STARLINK-32373","alt_names":[],"object_type":"PAYLOAD","status":"ACTIVE","operator":null,"country":"US","launch_date":"2024-08-31","launch_site_code":"AFETR","launch_vehicle":null,"mission":null,"orbit_class":"UNKNOWN","rcs_meters":null,"size_class":null,"mass_kg":null,"dimensions":null,"purposes":["comms"],"wikipedia_slug":null,"has_3d_model":false,"image_url":null,"decayed_at":null,"tle_current":{"epoch":"2026-09-21T22:33:19.620288Z","epoch_age_seconds":64168,"freshness":"FRESH","line1":"1 60923U 24154W   26264.93981042 -.00000186  00000+0  56290-5 0  9994","line2":"2 60923  53.1606  90.7256 0001297  91.6313 268.4839 15.34391008116411","mean_motion":15.34391008,"eccentricity":0.0001297,"inclination_deg":53.1606,"raan_deg":90.7256,"arg_perigee_deg":91.6313,"mean_anomaly_deg":268.4839,"bstar":5.629e-6,"rev_number":11641,"period_min":93.848308057864,"perigee_km":461.84270601105,"apogee_km":463.61722690215,"semimajor_km":6840.8669664566,"source":"CELESTRAK","updated_at":"2026-09-22T09:00:49.287789Z"}}}